Regional Weather Roundup
Issued by NWS

Home | Current Version | Previous Version | Graphics & Text | Print | Product List | Glossary On
Versions: 1 2 3 4 5 6 7 8 9 10 11 12 13 14 15 16 17 18 19 20 21 22 23 24 25 26 27 28 29 30 31 32 33 34 35 36 37 38 39 40 41 42 43 44 45 46 47 48 49 50
093
ASUS44 KJAN 260603
RWRMS

MISSISSIPPI HOURLY WEATHER ROUNDUP
NATIONAL WEATHER SERVICE JACKSON MS
1200 AM CST WED NOV 26 2014

NOTE: "FAIR: INDICATES FEW OR NO CLOUDS BELOW 12,000 FEET WITH NO
SIGNIFICANT WEATHER AND/OR OBSTRUCTIONS TO VISIBILITY.

MSZ001>002-007>008-010>013-018>021-025>028-034>036-260700-
NORTHWEST MISSISSIPPI

CITY           SKY/WX    TMP DP  RH WIND       PRES   REMARKS
CLARKSDALE     FAIR      32  32 100 CALM      30.19F
CLEVELAND      FAIR      34  32  92 CALM      30.18S
GREENWOOD      CLEAR     28  26  92 CALM      30.19F
6HR MIN TEMP:  28; 6HR MAX TEMP:  42;

GREENVILLE     CLEAR     34  31  88 S5        30.18F WCI  30
6HR MIN TEMP:  33; 6HR MAX TEMP:  47;

GRENADA        FAIR      30  28  93 CALM      30.19F
OLIVE BRANCH   CLEAR     32  32 100 CALM      30.18F
OXFORD         FAIR      25  25 100 CALM      30.19F
TUNICA         CLEAR     32  32 100 CALM      30.19F
$$

MSZ003>006-009-014>017-022>024-029>033-037>039-260700-
NORTHEAST MISSISSIPPI

CITY           SKY/WX    TMP DP  RH WIND       PRES   REMARKS
COLUMBUS AFB   CLEAR     35  26  70 NW6       30.17F WCI  30
6HR MIN TEMP:  32; 6HR MAX TEMP:  45;

CORINTH        FAIR      30  28  93 CALM      30.16F
GOLDN TRIANGLE CLEAR     36  27  69 NW5       30.15F WCI  32
STARKVILLE       N/A     30  28  93 CALM      30.18F
TUPELO         CLEAR     33  26  75 CALM      30.18F
6HR MIN TEMP:  33; 6HR MAX TEMP:  45;

$$

MSZ040-058-260700-
CENTRAL MISSISSIPPI

CITY           SKY/WX    TMP DP  RH WIND       PRES   REMARKS
JACKSON INTL   CLEAR     30  27  88 CALM      30.19F
6HR MIN TEMP:  30; 6HR MAX TEMP:  47;

JACKSON HAWKNS CLEAR     32  29  88 CALM      30.20F
6HR MIN TEMP:  32; 6HR MAX TEMP:  45;

MERIDIAN KEY   CLEAR     36  29  75 CALM      30.18S
6HR MIN TEMP:  35; 6HR MAX TEMP:  48;

MERIDIAN NAS   CLEAR     37  29  72 NW6       30.17F WCI  32
6HR MIN TEMP:  37; 6HR MAX TEMP:  48;

RAYMOND        FAIR      30  27  86 MISG      30.20S
VICKSBURG      CLEAR     30  28  92 CALM      30.21F
6HR MIN TEMP:  28; 6HR MAX TEMP:  41;

$$

MSZ059>079-260700-
SOUTH MISSISSIPPI

CITY           SKY/WX    TMP DP  RH WIND       PRES   REMARKS
BROOKHAVEN     FAIR      32  32 100 CALM      30.21S
HATTIESBURG    CLEAR     40  31  70 NW6       30.20F
6HR MIN TEMP:  40; 6HR MAX TEMP:  51;

MCCOMB         CLEAR     35  29  78 CALM      30.21S
6HR MIN TEMP:  33; 6HR MAX TEMP:  47;

NATCHEZ        CLEAR     32  28  86 CALM      30.21F
6HR MIN TEMP:  32; 6HR MAX TEMP:  45;

PINE BELT      CLEAR     37  28  70 NW3       30.19F
6HR MIN TEMP:  37; 6HR MAX TEMP:  48;

$$

MSZ080>082-260700-
COASTAL MISSISSIPPI

CITY           SKY/WX    TMP DP  RH WIND       PRES   REMARKS
BILOXI         MOCLDY    47  31  53 N9        30.18R
6HR MIN TEMP:  47; 6HR MAX TEMP:  54;

PASCAGOULA     CLOUDY    48  30  49 N8        30.16S
6HR MIN TEMP:  48; 6HR MAX TEMP:  54;

GULFPORT       PTCLDY    44  32  62 NW7       30.18S
6HR MIN TEMP:  44; 6HR MAX TEMP:  53;

$$



USA.gov is the U.S. government's official web portal to all federal, state and local government web resources and services.